Simultaneous Nadir Overpasses (SNOs) Predictions

Prediction of SNOs between GOES-16 and NOAA-19 Satellite Orbit:

Table of predicted SNOs for the next 14.0 days since TLE Epoch: 6/1/2024
Index Date Time (GOES-16) GOES-16 Lat,Lon NOAA-19 Lat,Lon Distance(km) Time Diff (sec)
1 06/03/2024 14:21:43 0.05, -75.22 0.46, -76.97 200.35 80
2 06/04/2024 14:12:07 0.05, -75.22 -0.24, -73.99 141.06 80
3 06/05/2024 13:59:50 0.05, -75.23 -0.94, -71.01 482.50 80
4 06/07/2024 02:31:37 -0.04, -75.24 -0.80, -78.64 387.87 80
5 06/08/2024 02:19:20 -0.04, -75.25 -0.14, -75.65 46.02 80
6 06/09/2024 02:04:23 -0.04, -75.26 0.59, -72.67 296.06 80
7 06/11/2024 14:23:51 0.03, -75.30 0.51, -77.30 228.62 80
8 06/12/2024 14:14:15 0.03, -75.32 -0.21, -74.32 114.26 80
9 06/13/2024 14:01:57 0.02, -75.34 -0.87, -71.33 457.35 80
